Zurück zum Katalog

ATLAS 5 CENTAUR R/B

AktivMEO
NORAD 45984·ROCKET BODY·🇺🇸 United States

Gestartet Jul 30, 2020 von Cape Canaveral Space Force Station

Loading…

Nächste Überflüge (nächste 24 Stunden)

TLE

VeraltetSource: Space-Track

Epoche: Jul 30, 2020, 13:51 UTC

1 45984U 20052B   20212.57736904 -.00000062  00000-0  00000+0 0  9995
2 45984  69.7373 332.3922 0065000 250.3442 134.2527  2.66257239    08

Verfolge ATLAS 5 CENTAUR R/B in Echtzeit mit AllMySat

Download on the App Store